Year,Month,Day,Hour,Minute,Value (Times are PST for temperature in C)
2010,07,21,00,00,14.70
2010,07,21,00,01,14.70
2010,07,21,00,02,14.70
2010,07,21,00,03,14.70
2010,07,21,00,04,14.70
2010,07,21,00,05,14.70
2010,07,21,00,06,14.80
2010,07,21,00,07,14.80
2010,07,21,00,08,14.80
2010,07,21,00,09,14.80
2010,07,21,00,10,14.80
2010,07,21,00,11,14.80
2010,07,21,00,12,14.80
2010,07,21,00,13,14.80
2010,07,21,00,14,14.80
2010,07,21,00,15,14.70
2010,07,21,00,16,14.70
2010,07,21,00,17,14.70
2010,07,21,00,18,14.70
2010,07,21,00,19,14.60
2010,07,21,00,20,14.60
2010,07,21,00,21,14.60
2010,07,21,00,22,14.60
2010,07,21,00,23,14.50
2010,07,21,00,24,14.50
2010,07,21,00,25,14.50
2010,07,21,00,26,14.50
2010,07,21,00,27,14.40
2010,07,21,00,28,14.40
2010,07,21,00,29,14.40
2010,07,21,00,30,14.40
2010,07,21,00,31,14.40
2010,07,21,00,32,14.40
2010,07,21,00,33,14.40
2010,07,21,00,34,14.40
2010,07,21,00,35,14.40
2010,07,21,00,36,14.40
2010,07,21,00,37,14.40
2010,07,21,00,38,14.40
2010,07,21,00,39,14.40
2010,07,21,00,40,14.40
2010,07,21,00,41,14.40
2010,07,21,00,42,14.40
2010,07,21,00,43,14.40
2010,07,21,00,44,14.40
2010,07,21,00,45,14.40
2010,07,21,00,46,14.40
2010,07,21,00,47,14.40
2010,07,21,00,48,14.40
2010,07,21,00,49,14.40
2010,07,21,00,50,14.40
2010,07,21,00,51,14.40
2010,07,21,00,52,14.40
2010,07,21,00,53,14.40
2010,07,21,00,54,14.30
2010,07,21,00,55,14.30
2010,07,21,00,56,14.30
2010,07,21,00,57,14.40
2010,07,21,00,58,14.40
2010,07,21,00,59,14.40
2010,07,21,01,00,14.40
2010,07,21,01,01,14.40
2010,07,21,01,02,14.40
2010,07,21,01,03,14.40
2010,07,21,01,04,14.40
2010,07,21,01,05,14.40
2010,07,21,01,06,14.40
2010,07,21,01,07,14.40
2010,07,21,01,08,14.40
2010,07,21,01,09,14.40
2010,07,21,01,10,14.30
2010,07,21,01,11,14.30
2010,07,21,01,12,14.30
2010,07,21,01,13,14.30
2010,07,21,01,14,14.20
2010,07,21,01,15,14.20
2010,07,21,01,16,14.20
2010,07,21,01,17,14.20
2010,07,21,01,18,14.20
2010,07,21,01,19,14.20
2010,07,21,01,20,14.20
2010,07,21,01,21,14.20
2010,07,21,01,22,14.20
2010,07,21,01,23,14.20
2010,07,21,01,24,14.20
2010,07,21,01,25,14.20
2010,07,21,01,26,14.20
2010,07,21,01,27,14.20
2010,07,21,01,28,14.10
2010,07,21,01,29,14.10
2010,07,21,01,30,14.10
2010,07,21,01,31,14.10
2010,07,21,01,32,14.10
2010,07,21,01,33,14.10
2010,07,21,01,34,14.00
2010,07,21,01,35,14.00
2010,07,21,01,36,14.00
2010,07,21,01,37,14.00
2010,07,21,01,38,13.90
2010,07,21,01,39,13.90
2010,07,21,01,40,13.90
2010,07,21,01,41,13.90
2010,07,21,01,42,13.80
2010,07,21,01,43,13.80
2010,07,21,01,44,13.80
2010,07,21,01,45,13.80
2010,07,21,01,46,13.80
2010,07,21,01,47,13.80
2010,07,21,01,48,13.90
2010,07,21,01,49,13.90
2010,07,21,01,50,13.90
2010,07,21,01,51,13.90
2010,07,21,01,52,13.90
2010,07,21,01,53,13.90
2010,07,21,01,54,13.90
2010,07,21,01,55,13.90
2010,07,21,01,56,13.90
2010,07,21,01,57,13.90
2010,07,21,01,58,13.90
2010,07,21,01,59,13.80
2010,07,21,02,00,13.80
2010,07,21,02,01,13.80
2010,07,21,02,02,13.80
2010,07,21,02,03,13.80
2010,07,21,02,04,13.70
2010,07,21,02,05,13.70
2010,07,21,02,06,13.70
2010,07,21,02,07,13.70
2010,07,21,02,08,13.70
2010,07,21,02,09,13.70
2010,07,21,02,10,13.70
2010,07,21,02,11,13.70
2010,07,21,02,12,13.60
2010,07,21,02,13,13.60
2010,07,21,02,14,13.60
2010,07,21,02,15,13.60
2010,07,21,02,16,13.60
2010,07,21,02,17,13.60
2010,07,21,02,18,13.60
2010,07,21,02,19,13.60
2010,07,21,02,20,13.60
2010,07,21,02,21,13.60
2010,07,21,02,22,13.60
2010,07,21,02,23,13.50
2010,07,21,02,24,13.50
2010,07,21,02,25,13.50
2010,07,21,02,26,13.50
2010,07,21,02,27,13.50
2010,07,21,02,28,13.40
2010,07,21,02,29,13.40
2010,07,21,02,30,13.40
2010,07,21,02,31,13.40
2010,07,21,02,32,13.30
2010,07,21,02,33,13.30
2010,07,21,02,34,13.30
2010,07,21,02,35,13.30
2010,07,21,02,36,13.30
2010,07,21,02,37,13.30
2010,07,21,02,38,13.30
2010,07,21,02,39,13.30
2010,07,21,02,40,13.30
2010,07,21,02,41,13.30
2010,07,21,02,42,13.30
2010,07,21,02,43,13.30
2010,07,21,02,44,13.20
2010,07,21,02,45,13.20
2010,07,21,02,46,13.20
2010,07,21,02,47,13.10
2010,07,21,02,48,13.10
2010,07,21,02,49,13.10
2010,07,21,02,50,13.00
2010,07,21,02,51,13.00
2010,07,21,02,52,12.90
2010,07,21,02,53,12.90
2010,07,21,02,54,12.90
2010,07,21,02,55,12.80
2010,07,21,02,56,12.80
2010,07,21,02,57,12.80
2010,07,21,02,58,12.80
2010,07,21,02,59,12.80
2010,07,21,03,00,12.80
2010,07,21,03,01,12.80
2010,07,21,03,02,12.80
2010,07,21,03,03,12.80
2010,07,21,03,04,12.70
2010,07,21,03,05,12.70
2010,07,21,03,06,12.70
2010,07,21,03,07,12.70
2010,07,21,03,08,12.70
2010,07,21,03,09,12.70
2010,07,21,03,10,12.70
2010,07,21,03,11,12.70
2010,07,21,03,12,12.70
2010,07,21,03,13,12.60
2010,07,21,03,14,12.60
2010,07,21,03,15,12.60
2010,07,21,03,16,12.60
2010,07,21,03,17,12.60
2010,07,21,03,18,12.60
2010,07,21,03,19,12.60
2010,07,21,03,20,12.60
2010,07,21,03,21,12.60
2010,07,21,03,22,12.50
2010,07,21,03,23,12.50
2010,07,21,03,24,12.50
2010,07,21,03,25,12.50
2010,07,21,03,26,12.50
2010,07,21,03,27,12.50
2010,07,21,03,28,12.50
2010,07,21,03,29,12.60
2010,07,21,03,30,12.60
2010,07,21,03,31,12.60
2010,07,21,03,32,12.60
2010,07,21,03,33,12.60
2010,07,21,03,34,12.60
2010,07,21,03,35,12.60
2010,07,21,03,36,12.60
2010,07,21,03,37,12.50
2010,07,21,03,38,12.50
2010,07,21,03,39,12.50
2010,07,21,03,40,12.50
2010,07,21,03,41,12.50
2010,07,21,03,42,12.50
2010,07,21,03,43,12.40
2010,07,21,03,44,12.40
2010,07,21,03,45,12.40
2010,07,21,03,46,12.40
2010,07,21,03,47,12.40
2010,07,21,03,48,12.40
2010,07,21,03,49,12.40
2010,07,21,03,50,12.40
2010,07,21,03,51,12.40
2010,07,21,03,52,12.40
2010,07,21,03,53,12.40
2010,07,21,03,54,12.40
2010,07,21,03,55,12.40
2010,07,21,03,56,12.40
2010,07,21,03,57,12.40
2010,07,21,03,58,12.40
2010,07,21,03,59,12.30
2010,07,21,04,00,12.30
2010,07,21,04,01,12.30
2010,07,21,04,02,12.30
2010,07,21,04,03,12.30
2010,07,21,04,04,12.30
2010,07,21,04,05,12.30
2010,07,21,04,06,12.30
2010,07,21,04,07,12.30
2010,07,21,04,08,12.30
2010,07,21,04,09,12.30
2010,07,21,04,10,12.30
2010,07,21,04,11,12.30
2010,07,21,04,12,12.30
2010,07,21,04,13,12.30
2010,07,21,04,14,12.30
2010,07,21,04,15,12.30
2010,07,21,04,16,12.30
2010,07,21,04,17,12.30
2010,07,21,04,18,12.20
2010,07,21,04,19,12.30
2010,07,21,04,20,12.30
2010,07,21,04,21,12.30
2010,07,21,04,22,12.20
2010,07,21,04,23,12.20
2010,07,21,04,24,12.20
2010,07,21,04,25,12.20
2010,07,21,04,26,12.20
2010,07,21,04,27,12.20
2010,07,21,04,28,12.20
2010,07,21,04,29,12.20
2010,07,21,04,30,12.20
2010,07,21,04,31,12.20
2010,07,21,04,32,12.20
2010,07,21,04,33,12.20
2010,07,21,04,34,12.20
2010,07,21,04,35,12.20
2010,07,21,04,36,12.20
2010,07,21,04,37,12.20
2010,07,21,04,38,12.20
2010,07,21,04,39,12.20
2010,07,21,04,40,12.20
2010,07,21,04,41,12.20
2010,07,21,04,42,12.20
2010,07,21,04,43,12.10
2010,07,21,04,44,12.10
2010,07,21,04,45,12.10
2010,07,21,04,46,12.10
2010,07,21,04,47,12.10
2010,07,21,04,48,12.10
2010,07,21,04,49,12.10
2010,07,21,04,50,12.00
2010,07,21,04,51,12.00
2010,07,21,04,52,12.00
2010,07,21,04,53,12.00
2010,07,21,04,54,12.00
2010,07,21,04,55,11.90
2010,07,21,04,56,11.90
2010,07,21,04,57,11.90
2010,07,21,04,58,11.90
2010,07,21,04,59,11.90
2010,07,21,05,00,11.90
2010,07,21,05,01,11.80
2010,07,21,05,02,11.80
2010,07,21,05,03,11.80
2010,07,21,05,04,11.80
2010,07,21,05,05,11.80
2010,07,21,05,06,11.80
2010,07,21,05,07,11.80
2010,07,21,05,08,11.80
2010,07,21,05,09,11.80
2010,07,21,05,10,11.80
2010,07,21,05,11,11.80
2010,07,21,05,12,11.80
2010,07,21,05,13,11.80
2010,07,21,05,14,11.80
2010,07,21,05,15,11.80
2010,07,21,05,16,11.80
2010,07,21,05,17,11.80
2010,07,21,05,18,11.80
2010,07,21,05,19,11.80
2010,07,21,05,20,11.80
2010,07,21,05,21,11.80
2010,07,21,05,22,11.80
2010,07,21,05,23,11.70
2010,07,21,05,24,11.70
2010,07,21,05,25,11.70
2010,07,21,05,26,11.70
2010,07,21,05,27,11.70
2010,07,21,05,28,11.70
2010,07,21,05,29,11.70
2010,07,21,05,30,11.70
2010,07,21,05,31,11.70
2010,07,21,05,32,11.70
2010,07,21,05,33,11.70
2010,07,21,05,34,11.70
2010,07,21,05,35,11.70
2010,07,21,05,36,11.70
2010,07,21,05,37,11.70
2010,07,21,05,38,11.70
2010,07,21,05,39,11.70
2010,07,21,05,40,11.70
2010,07,21,05,41,11.70
2010,07,21,05,42,11.70
2010,07,21,05,43,11.70
2010,07,21,05,44,11.60
2010,07,21,05,45,11.60
2010,07,21,05,46,11.60
2010,07,21,05,47,11.60
2010,07,21,05,48,11.60
2010,07,21,05,49,11.60
2010,07,21,05,50,11.60
2010,07,21,05,51,11.60
2010,07,21,05,52,11.60
2010,07,21,05,53,11.60
2010,07,21,05,54,11.60
2010,07,21,05,55,11.60
2010,07,21,05,56,11.70
2010,07,21,05,57,11.70
2010,07,21,05,58,11.80
2010,07,21,05,59,11.80
2010,07,21,06,00,11.80
2010,07,21,06,01,11.80
2010,07,21,06,02,11.80
2010,07,21,06,03,11.80
2010,07,21,06,04,11.80
2010,07,21,06,05,11.80
2010,07,21,06,06,11.80
2010,07,21,06,07,11.80
2010,07,21,06,08,11.80
2010,07,21,06,09,11.80
2010,07,21,06,10,11.90
2010,07,21,06,11,11.90
2010,07,21,06,12,11.90
2010,07,21,06,13,11.90
2010,07,21,06,14,11.90
2010,07,21,06,15,12.00
2010,07,21,06,16,12.00
2010,07,21,06,17,12.00
2010,07,21,06,18,12.00
2010,07,21,06,19,12.10
2010,07,21,06,20,12.20
2010,07,21,06,21,12.20
2010,07,21,06,22,12.30
2010,07,21,06,23,12.30
2010,07,21,06,24,12.30
2010,07,21,06,25,12.30
2010,07,21,06,26,12.30
2010,07,21,06,27,12.30
2010,07,21,06,28,12.30
2010,07,21,06,29,12.40
2010,07,21,06,30,12.40
2010,07,21,06,31,12.50
2010,07,21,06,32,12.50
2010,07,21,06,33,12.60
2010,07,21,06,34,12.60
2010,07,21,06,35,12.60
2010,07,21,06,36,12.70
2010,07,21,06,37,12.80
2010,07,21,06,38,12.80
2010,07,21,06,39,12.80
2010,07,21,06,40,12.90
2010,07,21,06,41,12.90
2010,07,21,06,42,12.90
2010,07,21,06,43,12.90
2010,07,21,06,44,12.90
2010,07,21,06,45,12.90
2010,07,21,06,46,12.90
2010,07,21,06,47,13.00
2010,07,21,06,48,13.00
2010,07,21,06,49,13.00
2010,07,21,06,50,13.00
2010,07,21,06,51,13.00
2010,07,21,06,52,13.10
2010,07,21,06,53,13.10
2010,07,21,06,54,13.10
2010,07,21,06,55,13.10
2010,07,21,06,56,13.20
2010,07,21,06,57,13.20
2010,07,21,06,58,13.30
2010,07,21,06,59,13.30
2010,07,21,07,00,13.30
2010,07,21,07,01,13.40
2010,07,21,07,02,13.40
2010,07,21,07,03,13.50
2010,07,21,07,04,13.60
2010,07,21,07,05,13.60
2010,07,21,07,06,13.60
2010,07,21,07,07,13.60
2010,07,21,07,08,13.60
2010,07,21,07,09,13.60
2010,07,21,07,10,13.70
2010,07,21,07,11,13.70
2010,07,21,07,12,13.80
2010,07,21,07,13,13.80
2010,07,21,07,14,13.70
2010,07,21,07,15,13.70
2010,07,21,07,16,13.70
2010,07,21,07,17,13.70
2010,07,21,07,18,13.70
2010,07,21,07,19,13.70
2010,07,21,07,20,13.80
2010,07,21,07,21,13.80
2010,07,21,07,22,13.80
2010,07,21,07,23,13.80
2010,07,21,07,24,13.80
2010,07,21,07,25,13.80
2010,07,21,07,26,13.80
2010,07,21,07,27,13.80
2010,07,21,07,28,13.80
2010,07,21,07,29,13.70
2010,07,21,07,30,13.80
2010,07,21,07,31,13.80
2010,07,21,07,32,13.70
2010,07,21,07,33,13.70
2010,07,21,07,34,13.70
2010,07,21,07,35,13.70
2010,07,21,07,36,13.70
2010,07,21,07,37,13.70
2010,07,21,07,38,13.70
2010,07,21,07,39,13.70
2010,07,21,07,40,13.70
2010,07,21,07,41,13.70
2010,07,21,07,42,13.70
2010,07,21,07,43,13.70
2010,07,21,07,44,13.70
2010,07,21,07,45,13.70
2010,07,21,07,46,13.70
2010,07,21,07,47,13.70
2010,07,21,07,48,13.70
2010,07,21,07,49,13.70
2010,07,21,07,50,13.70
2010,07,21,07,51,13.70
2010,07,21,07,52,13.70
2010,07,21,07,53,13.70
2010,07,21,07,54,13.70
2010,07,21,07,55,13.70
2010,07,21,07,56,13.70
2010,07,21,07,57,13.70
2010,07,21,07,58,13.70
2010,07,21,07,59,13.80
2010,07,21,08,00,13.80
2010,07,21,08,01,13.80
2010,07,21,08,02,13.90
2010,07,21,08,03,14.00
2010,07,21,08,04,14.00
2010,07,21,08,05,14.00
2010,07,21,08,06,14.10
2010,07,21,08,07,14.20
2010,07,21,08,08,14.20
2010,07,21,08,09,14.30
2010,07,21,08,10,14.30
2010,07,21,08,11,14.40
2010,07,21,08,12,14.40
2010,07,21,08,13,14.40
2010,07,21,08,14,14.40
2010,07,21,08,15,14.40
2010,07,21,08,16,14.50
2010,07,21,08,17,14.50
2010,07,21,08,18,14.50
2010,07,21,08,19,14.60
2010,07,21,08,20,14.70
2010,07,21,08,21,14.70
2010,07,21,08,22,14.70
2010,07,21,08,23,14.70
2010,07,21,08,24,14.70
2010,07,21,08,25,14.70
2010,07,21,08,26,14.70
2010,07,21,08,27,14.80
2010,07,21,08,28,14.80
2010,07,21,08,29,14.90
2010,07,21,08,30,14.90
2010,07,21,08,31,15.00
2010,07,21,08,32,15.00
2010,07,21,08,33,15.10
2010,07,21,08,34,15.20
2010,07,21,08,35,15.30
2010,07,21,08,36,15.40
2010,07,21,08,37,15.50
2010,07,21,08,38,15.50
2010,07,21,08,39,15.60
2010,07,21,08,40,15.60
2010,07,21,08,41,15.70
2010,07,21,08,42,15.70
2010,07,21,08,43,15.80
2010,07,21,08,44,15.80
2010,07,21,08,45,15.90
2010,07,21,08,46,16.00
2010,07,21,08,47,16.10
2010,07,21,08,48,16.10
2010,07,21,08,49,16.20
2010,07,21,08,50,16.30
2010,07,21,08,51,16.30
2010,07,21,08,52,16.40
2010,07,21,08,53,16.40
2010,07,21,08,54,16.40
2010,07,21,08,55,16.50
2010,07,21,08,56,16.60
2010,07,21,08,57,16.60
2010,07,21,08,58,16.70
2010,07,21,08,59,16.80
2010,07,21,09,00,16.80
2010,07,21,09,01,16.70
2010,07,21,09,02,16.70
2010,07,21,09,03,16.70
2010,07,21,09,04,16.70
2010,07,21,09,05,16.70
2010,07,21,09,06,16.60
2010,07,21,09,07,16.60
2010,07,21,09,08,16.60
2010,07,21,09,09,16.40
2010,07,21,09,10,16.40
2010,07,21,09,11,16.30
2010,07,21,09,12,16.30
2010,07,21,09,13,16.30
2010,07,21,09,14,16.30
2010,07,21,09,15,16.30
2010,07,21,09,16,16.30
2010,07,21,09,17,16.40
2010,07,21,09,18,16.40
2010,07,21,09,19,16.40
2010,07,21,09,20,16.40
2010,07,21,09,21,16.40
2010,07,21,09,22,16.40
2010,07,21,09,23,16.60
2010,07,21,09,24,16.60
2010,07,21,09,25,16.60
2010,07,21,09,26,16.60
2010,07,21,09,27,16.60
2010,07,21,09,28,16.70
2010,07,21,09,29,16.70
2010,07,21,09,30,16.70
2010,07,21,09,31,16.70
2010,07,21,09,32,16.60
2010,07,21,09,33,16.50
2010,07,21,09,34,16.40
2010,07,21,09,35,16.30
2010,07,21,09,36,16.30
2010,07,21,09,37,16.40
2010,07,21,09,38,16.30
2010,07,21,09,39,16.30
2010,07,21,09,40,16.30
2010,07,21,09,41,16.20
2010,07,21,09,42,16.30
2010,07,21,09,43,16.30
2010,07,21,09,44,16.40
2010,07,21,09,45,16.50
2010,07,21,09,46,16.60
2010,07,21,09,47,16.60
2010,07,21,09,48,16.70
2010,07,21,09,49,16.80
2010,07,21,09,50,16.90
2010,07,21,09,51,16.90
2010,07,21,09,52,16.90
2010,07,21,09,53,16.90
2010,07,21,09,54,17.00
2010,07,21,09,55,17.10
2010,07,21,09,56,17.20
2010,07,21,09,57,17.00
2010,07,21,09,58,17.00
2010,07,21,09,59,16.90
2010,07,21,10,00,16.70
2010,07,21,10,01,16.70
2010,07,21,10,02,16.70
2010,07,21,10,03,16.70
2010,07,21,10,04,16.60
2010,07,21,10,05,16.50
2010,07,21,10,06,16.40
2010,07,21,10,07,16.40
2010,07,21,10,08,16.40
2010,07,21,10,09,16.30
2010,07,21,10,10,16.30
2010,07,21,10,11,16.20
2010,07,21,10,12,16.10
2010,07,21,10,13,16.10
2010,07,21,10,14,16.00
2010,07,21,10,15,15.90
2010,07,21,10,16,15.90
2010,07,21,10,17,15.90
2010,07,21,10,18,15.90
2010,07,21,10,19,15.80
2010,07,21,10,20,15.80
2010,07,21,10,21,15.80
2010,07,21,10,22,15.70
2010,07,21,10,23,15.70
2010,07,21,10,24,15.70
2010,07,21,10,25,15.70
2010,07,21,10,26,15.70
2010,07,21,10,27,15.70
2010,07,21,10,28,15.60
2010,07,21,10,29,15.70
2010,07,21,10,30,15.70
2010,07,21,10,31,15.60
2010,07,21,10,32,15.60
2010,07,21,10,33,15.60
2010,07,21,10,34,15.60
2010,07,21,10,35,15.60
2010,07,21,10,36,15.60
2010,07,21,10,37,15.70
2010,07,21,10,38,15.70
2010,07,21,10,39,15.80
2010,07,21,10,40,15.80
2010,07,21,10,41,15.80
2010,07,21,10,42,15.80
2010,07,21,10,43,15.80
2010,07,21,10,44,15.90
2010,07,21,10,45,16.00
2010,07,21,10,46,16.10
2010,07,21,10,47,16.10
2010,07,21,10,48,16.10
2010,07,21,10,49,16.00
2010,07,21,10,50,16.00
2010,07,21,10,51,16.10
2010,07,21,10,52,16.10
2010,07,21,10,53,16.20
2010,07,21,10,54,16.20
2010,07,21,10,55,16.30
2010,07,21,10,56,16.30
2010,07,21,10,57,16.40
2010,07,21,10,58,16.50
2010,07,21,10,59,16.40
2010,07,21,11,00,16.20
2010,07,21,11,01,16.10
2010,07,21,11,02,15.90
2010,07,21,11,03,15.80
2010,07,21,11,04,15.80
2010,07,21,11,05,15.80
2010,07,21,11,06,15.80
2010,07,21,11,07,15.80
2010,07,21,11,08,15.80
2010,07,21,11,09,15.80
2010,07,21,11,10,15.80
2010,07,21,11,11,15.90
2010,07,21,11,12,16.10
2010,07,21,11,13,16.20
2010,07,21,11,14,16.30
2010,07,21,11,15,16.20
2010,07,21,11,16,16.30
2010,07,21,11,17,16.40
2010,07,21,11,18,16.40
2010,07,21,11,19,16.40
2010,07,21,11,20,16.30
2010,07,21,11,21,16.20
2010,07,21,11,22,16.20
2010,07,21,11,23,16.10
2010,07,21,11,24,16.20
2010,07,21,11,25,16.00
2010,07,21,11,26,15.90
2010,07,21,11,27,15.90
2010,07,21,11,28,15.80
2010,07,21,11,29,15.80
2010,07,21,11,30,15.90
2010,07,21,11,31,15.90
2010,07,21,11,32,15.90
2010,07,21,11,33,15.90
2010,07,21,11,34,16.00
2010,07,21,11,35,16.10
2010,07,21,11,36,16.20
2010,07,21,11,37,16.20
2010,07,21,11,38,16.20
2010,07,21,11,39,16.20
2010,07,21,11,40,16.30
2010,07,21,11,41,16.40
2010,07,21,11,42,16.60
2010,07,21,11,43,16.70
2010,07,21,11,44,16.90
2010,07,21,11,45,17.00
2010,07,21,11,46,17.10
2010,07,21,11,47,17.10
2010,07,21,11,48,17.20
2010,07,21,11,49,17.20
2010,07,21,11,50,17.10
2010,07,21,11,51,17.10
2010,07,21,11,52,17.20
2010,07,21,11,53,17.30
2010,07,21,11,54,17.30
2010,07,21,11,55,17.50
2010,07,21,11,56,17.60
2010,07,21,11,57,17.80
2010,07,21,11,58,17.90
2010,07,21,11,59,17.90
2010,07,21,12,00,18.10
2010,07,21,12,01,18.20
2010,07,21,12,02,18.20
2010,07,21,12,03,18.20
2010,07,21,12,04,18.30
2010,07,21,12,05,18.40
2010,07,21,12,06,18.50
2010,07,21,12,07,18.60
2010,07,21,12,08,18.50
2010,07,21,12,09,18.50
2010,07,21,12,10,18.40
2010,07,21,12,11,18.40
2010,07,21,12,12,18.30
2010,07,21,12,13,18.30
2010,07,21,12,14,18.30
2010,07,21,12,15,18.30
2010,07,21,12,16,18.40
2010,07,21,12,17,18.30
2010,07,21,12,18,18.20
2010,07,21,12,19,18.20
2010,07,21,12,20,18.10
2010,07,21,12,21,18.20
2010,07,21,12,22,18.20
2010,07,21,12,23,18.20
2010,07,21,12,24,18.20
2010,07,21,12,25,18.30
2010,07,21,12,26,18.40
2010,07,21,12,27,18.50
2010,07,21,12,28,18.70
2010,07,21,12,29,18.80
2010,07,21,12,30,18.90
2010,07,21,12,31,19.10
2010,07,21,12,32,19.20
2010,07,21,12,33,19.30
2010,07,21,12,34,19.50
2010,07,21,12,35,19.60
2010,07,21,12,36,19.60
2010,07,21,12,37,19.60
2010,07,21,12,38,19.70
2010,07,21,12,39,19.70
2010,07,21,12,40,19.70
2010,07,21,12,41,19.50
2010,07,21,12,42,19.40
2010,07,21,12,43,19.40
2010,07,21,12,44,19.40
2010,07,21,12,45,19.50
2010,07,21,12,46,19.50
2010,07,21,12,47,19.50
2010,07,21,12,48,19.50
2010,07,21,12,49,19.40
2010,07,21,12,50,19.40
2010,07,21,12,51,19.60
2010,07,21,12,52,19.60
2010,07,21,12,53,19.60
2010,07,21,12,54,19.40
2010,07,21,12,55,19.50
2010,07,21,12,56,19.50
2010,07,21,12,57,19.50
2010,07,21,12,58,19.50
2010,07,21,12,59,19.50
2010,07,21,13,00,19.40
2010,07,21,13,01,19.30
2010,07,21,13,02,19.10
2010,07,21,13,03,19.20
2010,07,21,13,04,19.30
2010,07,21,13,05,19.40
2010,07,21,13,06,19.40
2010,07,21,13,07,19.50
2010,07,21,13,08,19.40
2010,07,21,13,09,19.40
2010,07,21,13,10,19.40
2010,07,21,13,11,19.40
2010,07,21,13,12,19.50
2010,07,21,13,13,19.50
2010,07,21,13,14,19.50
2010,07,21,13,15,19.50
2010,07,21,13,16,19.50
2010,07,21,13,17,19.60
2010,07,21,13,18,19.70
2010,07,21,13,19,19.80
2010,07,21,13,20,19.80
2010,07,21,13,21,19.80
2010,07,21,13,22,19.80
2010,07,21,13,23,19.70
2010,07,21,13,24,19.70
2010,07,21,13,25,19.80
2010,07,21,13,26,19.80
2010,07,21,13,27,19.80
2010,07,21,13,28,19.80
2010,07,21,13,29,19.80
2010,07,21,13,30,19.90
2010,07,21,13,31,19.90
2010,07,21,13,32,19.90
2010,07,21,13,33,19.90
2010,07,21,13,34,19.90
2010,07,21,13,35,19.80
2010,07,21,13,36,19.70
2010,07,21,13,37,19.60
2010,07,21,13,38,19.50
2010,07,21,13,39,19.40
2010,07,21,13,40,19.40
2010,07,21,13,41,19.40
2010,07,21,13,42,19.40
2010,07,21,13,43,19.50
2010,07,21,13,44,19.50
2010,07,21,13,45,19.50
2010,07,21,13,46,19.40
2010,07,21,13,47,19.30
2010,07,21,13,48,19.20
2010,07,21,13,49,19.10
2010,07,21,13,50,19.10
2010,07,21,13,51,19.10
2010,07,21,13,52,19.10
2010,07,21,13,53,19.10
2010,07,21,13,54,19.30
2010,07,21,13,55,19.30
2010,07,21,13,56,19.40
2010,07,21,13,57,19.40
2010,07,21,13,58,19.50
2010,07,21,13,59,19.70
2010,07,21,14,00,19.70
2010,07,21,14,01,19.70
2010,07,21,14,02,19.60
2010,07,21,14,03,19.60
2010,07,21,14,04,19.70
2010,07,21,14,05,19.90
2010,07,21,14,06,19.80
2010,07,21,14,07,19.80
2010,07,21,14,08,19.80
2010,07,21,14,09,19.70
2010,07,21,14,10,19.80
2010,07,21,14,11,19.80
2010,07,21,14,12,19.90
2010,07,21,14,13,20.10
2010,07,21,14,14,20.20
2010,07,21,14,15,20.30
2010,07,21,14,16,20.20
2010,07,21,14,17,20.30
2010,07,21,14,18,20.30
2010,07,21,14,19,20.40
2010,07,21,14,20,20.50
2010,07,21,14,21,20.60
2010,07,21,14,22,20.60
2010,07,21,14,23,20.50
2010,07,21,14,24,20.40
2010,07,21,14,25,20.50
2010,07,21,14,26,20.60
2010,07,21,14,27,20.70
2010,07,21,14,28,20.90
2010,07,21,14,29,21.10
2010,07,21,14,30,21.30
2010,07,21,14,31,21.20
2010,07,21,14,32,21.00
2010,07,21,14,33,20.80
2010,07,21,14,34,20.60
2010,07,21,14,35,20.50
2010,07,21,14,36,20.40
2010,07,21,14,37,20.40
2010,07,21,14,38,20.30
2010,07,21,14,39,20.40
2010,07,21,14,40,20.50
2010,07,21,14,41,20.50
2010,07,21,14,42,20.50
2010,07,21,14,43,20.50
2010,07,21,14,44,20.30
2010,07,21,14,45,20.20
2010,07,21,14,46,20.20
2010,07,21,14,47,20.20
2010,07,21,14,48,20.20
2010,07,21,14,49,20.10
2010,07,21,14,50,19.90
2010,07,21,14,51,19.80
2010,07,21,14,52,19.60
2010,07,21,14,53,19.40
2010,07,21,14,54,19.30
2010,07,21,14,55,19.20
2010,07,21,14,56,19.10
2010,07,21,14,57,19.10
2010,07,21,14,58,19.10
2010,07,21,14,59,19.00
2010,07,21,15,00,18.90
2010,07,21,15,01,18.80
2010,07,21,15,02,18.70
2010,07,21,15,03,18.50
2010,07,21,15,04,18.30
2010,07,21,15,05,18.10
2010,07,21,15,06,18.10
2010,07,21,15,07,18.00
2010,07,21,15,08,18.00
2010,07,21,15,09,18.10
2010,07,21,15,10,18.20
2010,07,21,15,11,18.30
2010,07,21,15,12,18.30
2010,07,21,15,13,18.40
2010,07,21,15,14,18.40
2010,07,21,15,15,18.40
2010,07,21,15,16,18.40
2010,07,21,15,17,18.40
2010,07,21,15,18,18.20
2010,07,21,15,19,18.00
2010,07,21,15,20,17.90
2010,07,21,15,21,17.70
2010,07,21,15,22,17.60
2010,07,21,15,23,17.60
2010,07,21,15,24,17.70
2010,07,21,15,25,17.70
2010,07,21,15,26,17.80
2010,07,21,15,27,17.80
2010,07,21,15,28,17.80
2010,07,21,15,29,17.80
2010,07,21,15,30,17.80
2010,07,21,15,31,17.70
2010,07,21,15,32,17.60
2010,07,21,15,33,17.50
2010,07,21,15,34,17.30
2010,07,21,15,35,17.20
2010,07,21,15,36,17.20
2010,07,21,15,37,17.20
2010,07,21,15,38,17.20
2010,07,21,15,39,17.30
2010,07,21,15,40,17.60
2010,07,21,15,41,17.70
2010,07,21,15,42,17.90
2010,07,21,15,43,18.10
2010,07,21,15,44,18.40
2010,07,21,15,45,18.60
2010,07,21,15,46,18.70
2010,07,21,15,47,18.70
2010,07,21,15,48,18.80
2010,07,21,15,49,18.90
2010,07,21,15,50,18.90
2010,07,21,15,51,19.10
2010,07,21,15,52,19.10
2010,07,21,15,53,19.10
2010,07,21,15,54,19.10
2010,07,21,15,55,19.20
2010,07,21,15,56,19.20
2010,07,21,15,57,19.30
2010,07,21,15,58,19.40
2010,07,21,15,59,19.40
2010,07,21,16,00,19.40
2010,07,21,16,01,19.30
2010,07,21,16,02,19.40
2010,07,21,16,03,19.30
2010,07,21,16,04,19.40
2010,07,21,16,05,19.40
2010,07,21,16,06,19.20
2010,07,21,16,07,19.10
2010,07,21,16,08,19.10
2010,07,21,16,09,19.10
2010,07,21,16,10,19.10
2010,07,21,16,11,19.20
2010,07,21,16,12,19.20
2010,07,21,16,13,19.30
2010,07,21,16,14,19.40
2010,07,21,16,15,19.40
2010,07,21,16,16,19.40
2010,07,21,16,17,19.30
2010,07,21,16,18,19.10
2010,07,21,16,19,19.00
2010,07,21,16,20,18.90
2010,07,21,16,21,18.90
2010,07,21,16,22,18.90
2010,07,21,16,23,18.90
2010,07,21,16,24,18.90
2010,07,21,16,25,18.90
2010,07,21,16,26,18.80
2010,07,21,16,27,18.70
2010,07,21,16,28,18.70
2010,07,21,16,29,18.60
2010,07,21,16,30,18.50
2010,07,21,16,31,18.50
2010,07,21,16,32,18.30
2010,07,21,16,33,18.00
2010,07,21,16,34,17.70
2010,07,21,16,35,17.50
2010,07,21,16,36,17.40
2010,07,21,16,37,17.40
2010,07,21,16,38,17.20
2010,07,21,16,39,17.10
2010,07,21,16,40,17.10
2010,07,21,16,41,17.10
2010,07,21,16,42,17.00
2010,07,21,16,43,16.90
2010,07,21,16,44,16.70
2010,07,21,16,45,16.50
2010,07,21,16,46,16.20
2010,07,21,16,47,16.10
2010,07,21,16,48,15.90
2010,07,21,16,49,15.80
2010,07,21,16,50,15.80
2010,07,21,16,51,15.70
2010,07,21,16,52,15.70
2010,07,21,16,53,15.80
2010,07,21,16,54,15.80
2010,07,21,16,55,16.00
2010,07,21,16,56,16.10
2010,07,21,16,57,16.20
2010,07,21,16,58,16.40
2010,07,21,16,59,16.50
2010,07,21,17,00,16.70
2010,07,21,17,01,16.90
2010,07,21,17,02,17.10
2010,07,21,17,03,17.30
2010,07,21,17,04,17.50
2010,07,21,17,05,17.60
2010,07,21,17,06,17.70
2010,07,21,17,07,17.80
2010,07,21,17,08,17.80
2010,07,21,17,09,17.80
2010,07,21,17,10,17.70
2010,07,21,17,11,17.60
2010,07,21,17,12,17.50
2010,07,21,17,13,17.40
2010,07,21,17,14,17.40
2010,07,21,17,15,17.30
2010,07,21,17,16,17.40
2010,07,21,17,17,17.50
2010,07,21,17,18,17.60
2010,07,21,17,19,17.70